FloripaSat 1
1 44885U 19093G   25165.82308254  .00004722  00000-0  39907-3 0  9998
2 44885  97.8160 253.4351 0010358 183.7593 176.3553 14.98528057297533
RS-44
1 44909U 19096E   25165.87006139  .00000028  00000-0  77193-4 0  9995
2 44909  82.5213 223.7636 0216269 283.2917  74.4148 12.79741158255405
UPMSat 2
1 46276U 20061E   25165.46952763  .00073205  00000-0  62193-3 0  9996
2 46276  97.2430 240.0177 0002091 161.2862 198.8478 15.69402793266231
SALSAT
1 46495U 20068K   25165.47861092  .00007041  00000-0  30378-3 0  9996
2 46495  97.8607 143.7333 0012533 138.8592 221.3590 15.22805311259276
CubeSX-Sirius-HSE
1 47951U 21022V   25157.62701764  .07883385  25648-5  89537-3 0  9993
2 47951  97.4004  72.1904 0010275 223.9924 136.0557 16.36879307233400
CubeSX-HSE
1 47952U 21022W   25157.69972699  .06655353  25454-5  93288-3 0  9992
2 47952  97.3980  72.5414 0010307 219.3637 140.6911 16.34906352233436
GRBAlpha
1 47959U 21022AD  25160.45426454  .07979523  25524-5  90936-3 0  9994
2 47959  97.3889  75.6219 0010935 224.3674 135.6748 16.36820468232696
TUBIN
1 48900U 21059X   25165.85295422  .00040826  00000-0  48577-3 0  9998
2 48900  97.6753 335.5090 0003673 196.6886 163.4250 15.61020931220865
LEDSAT
1 49069U 21073D   25165.75509708  .00062144  00000-0  72242-3 0  9998
2 49069  97.3886 247.5106 0008799  66.5786 293.6396 15.61495709212243
CUTE
1 49263U 21088D   25165.46826699  .00026736  00000-0  52602-3 0  9994
2 49263  97.4505 241.8641 0007544 213.6977 146.3794 15.47209097205181
TeikyoSat 4
1 49396U 21102B   25165.52890508  .00002556  00000-0  17128-3 0  9993
2 49396  97.4087 203.7789 0013993 114.2188 246.0504 15.07660586197297
Z-Sat
1 49399U 21102E   25165.70636464  .00004169  00000-0  22914-3 0  9996
2 49399  97.3789 207.0771 0019891  87.3635 272.9874 15.14456164197758
KOSEN 1
1 49402U 21102H   25165.67293171  .00007304  00000-0  33732-3 0  9995
2 49402  97.3691 210.4980 0017247  65.0295 295.2730 15.20362590198063
HO-113
1 50466U 21131B   25165.76093879  .00000533  00000-0  18024-3 0  9996
2 50466  98.5104 255.0882 0005390 115.7636 244.4109 14.40820882182198
Foresail-1
1 52766U 22057AL  25165.41520039  .00673646  22238-3  10307-2 0  9990
2 52766  97.6049 318.1922 0010011 249.4342 110.5864 16.04328389170670
SNUGLITE 2
1 52899U 22065F   25165.34532627  .00001066  00000-0  21605-3 0  9999
2 52899  98.1695 307.2722 0008961  98.2028 262.0190 14.63224894157184
UmKA 1 (RS40S)
1 57172U 23091G   25165.88935241  .00005279  00000-0  28244-3 0  9992
2 57172  97.5570 221.2436 0013091 321.0676  38.9612 15.15417928108287
CubeBel-2 (EU11S)
1 57175U 23091K   25165.83937597  .00009764  00000-0  46321-3 0  9995
2 57175  97.5568 222.3719 0010952 329.9792  30.0813 15.19430438108351
VERONIKA
1 58261U 23174F   25165.80791174  .00139974  00000-0  10571-2 0  9994
2 58261  97.4111 252.3010 0000652 351.8636   8.2617 15.72029718 89503
ENSO
1 58470U 23185J   25165.84603594  .00047005  00000-0  66266-3 0  9996
2 58470  97.3726 241.1350 0006947  74.3054 285.8966 15.56452931 85856
EIRSAT-1
1 58472U 23185L   25165.87776333  .00099211  00000-0  86597-3 0  9998
2 58472  97.3678 243.1631 0003854  88.1779 271.9924 15.68648616 85994
SONATE-2
1 59112U 24043Q   25165.31605568  .00018259  00000-0  52269-3 0  9996
2 59112  97.5152 296.5886 0012253  98.5101 261.7531 15.35922054 71065
MO-122
1 60209U 24125G   25165.32950568  .00019940  00000-0  56163-3 0  9995
2 60209  97.2782  16.8945 0020275 118.8693 241.4589 15.36272388 52688
GRBBeta
1 60237U 24128C   25165.85984966  .00004586  00000-0  34752-3 0  9996
2 60237  61.9925  61.1492 0052382  58.7677 301.8532 15.02682204 50990
Curium One
1 60242U 24128H   25165.42263098  .00008739  00000-0  60544-3 0  9993
2 60242  61.9822  60.8959 0052302  54.7884 305.8089 15.05185964 50966
ROBUSTA-3A
1 60243U 24128J   25165.42680409  .00008750  00000-0  61473-3 0  9998
2 60243  61.9892  61.7257 0051074  52.4463 308.1253 15.04717984 50958
CatSat
1 60246U 24125J   25165.53008503  .00010986  00000-0  36430-3 0  9998
2 60246  97.2580  16.2511 0044051  77.4664 283.1499 15.30470993 50748
HYPERVIEW-1G (RS66S)
1 61772U 24199AP  25165.88917292  .00016234  00000-0  46797-3 0  9995
2 61772  97.3522  34.7362 0014210 166.3228 193.8403 15.35699309 77770
AO-123
1 61781U 24199AY  25165.88310258  .00006049  00000-0  22044-3 0  9996
2 61781  97.3536  33.5615 0016020 172.7330 187.4145 15.28433373 77691
ZIMSAT 2
1 61783U 24199BA  25165.85841098  .00033285  00000-0  80311-3 0  9999
2 61783  97.3498  35.3587 0014238 163.1338 197.0385 15.41035118 80966
HADES-R (SO-124)
1 62690U 25009CK  25165.19019309  .00039173  00000-0  13679-2 0  9991
2 62690  97.4090 245.9777 0003855  97.3500 262.8179 15.29469502 22855
HYDRA-T
1 62692U 25009CM  25165.17488682  .00040850  00000-0  14147-2 0  9990
2 62692  97.4092 245.9973 0003493  95.6062 264.5577 15.29730564 22859
JINJUSat 1B
1 63210U 25052A   25165.46477830  .00012377  00000-0  56477-3 0  9996
2 63210  97.4410  59.5261 0002847 328.6606  31.4459 15.20754183 13993
NUSHSAT 1
1 63211U 25052B   25165.26160413  .00014297  00000-0  64732-3 0  9997
2 63211  97.4400  59.3277 0003038 337.6054  22.5048 15.20985971 13961
TEVEL2-4
1 63213U 25052D   25165.21031948  .00013202  00000-0  60334-3 0  9993
2 63213  97.4317  59.1469 0002927   6.8310 353.2965 15.20684030 13950
TEVEL2-5
1 63214U 25052E   25165.40837019  .00012521  00000-0  57267-3 0  9992
2 63214  97.4317  59.3411 0002906   5.5869 354.5398 15.20670147 13983
TEVEL2-6
1 63215U 25052F   25165.27902485  .00012734  00000-0  58310-3 0  9994
2 63215  97.4320  59.2095 0003000   7.0317 353.0960 15.20626171 13961
TEVEL2-1
1 63217U 25052H   25165.42239289  .00012323  00000-0  56789-3 0  9990
2 63217  97.4293  59.2948 0003636  17.2530 342.8828 15.20412825 13984
TEVEL2-2
1 63218U 25052J   25165.22525443  .00013083  00000-0  60272-3 0  9995
2 63218  97.4294  59.1007 0003767  19.4290 340.7088 15.20408048 13957
TEVEL2-3
1 63219U 25052K   25165.42283161  .00012242  00000-0  56424-3 0  9996
2 63219  97.4294  59.2948 0003685  18.0938 342.0428 15.20407521 13987
TEVEL2-8
1 63237U 25052AD  25165.42625841  .00012141  00000-0  57904-3 0  9993
2 63237  97.4359  59.2131 0008352  13.1781 346.9670 15.19202468 13973
TEVEL2-9
1 63238U 25052AE  25165.42878846  .00012118  00000-0  57896-3 0  9993
2 63238  97.4366  59.2117 0008394  12.4492 347.6948 15.19142911 13975
TEVEL2-7
1 63239U 25052AF  25165.43085117  .00012092  00000-0  57830-3 0  9995
2 63239  97.4365  59.2078 0008397  12.9954 347.1495 15.19108257 13979
HYDRA-W
1 63490U 25052BL  25165.14381612  .00027873  00000-0  11667-2 0  9991
2 63490  97.4308  59.2249 0011637   8.1344 352.0079 15.23464833 13957
HADES-ICM (SO-125)
1 63492U 25052BN  25165.22575307  .00025845  00000-0  10960-2 0  9990
2 63492  97.4312  59.2743 0012070  11.1286 349.0215 15.23034424 13962
